[[{"header":{"parameterUnit":"m.s-1","parameterCategory":1,"la1":30.2992,"la2":30.254,"lo1":-89.0895,"lo2":-89.0443,"dy":0.0025,"dx":0.0025,"nx":19,"ny":19,"refTime":"2026-03-13T21:00:00:Z","depth":0,"parameterNumber":2,"parameterNumberName":"U-component_of_WINDS"},"data":[0,0,0,-3.1737,-3.1739,-3.1801,-3.1801,-3.1903,-3.1904,0,0,0,0,0,0,0,0,0,0,0,-3.1732,-3.1733,-3.1737,-3.1739,-3.1801,-3.1801,-3.1903,-3.1904,0,0,0,0,0,0,0,0,0,0,0,-3.1731,-3.1733,-3.1734,-3.1739,-3.1801,-3.1801,-3.1903,-3.1848,0,0,0,0,0,0,0,0,0,0,-3.1783,-3.1792,-3.1732,-3.1734,-3.174,-3.1801,-3.1801,-3.1845,-3.1851,-3.1884,0,-3.1917,0,-3.1913,-3.1913,-3.1913,0,0,0,-3.1729,-3.1786,-3.1791,-3.1734,-3.174,-3.1801,-3.177,-3.1848,-3.1856,-3.1893,-3.1919,-3.1922,-3.1914,-3.1913,-3.1914,-3.2138,-3.214,0,0,-3.1725,-3.175,-3.1786,-3.1797,-3.1788,-3.1768,-3.1772,-3.1852,-3.1882,-3.1919,-3.1924,-3.1916,-3.1914,-3.1915,-3.2137,-3.2139,0,0,0,-3.1722,-3.1748,-3.175,-3.1793,-3.1803,-3.177,-3.1775,-3.1878,-3.1877,-3.1925,-3.1917,-3.1915,-3.1916,-3.2135,-3.2138,-3.2236,0,0,0,-3.172,-3.1746,-3.175,-3.1766,-3.1802,-3.1841,-3.18,-3.1871,-3.1879,-3.1917,-3.1915,-3.1918,-3.2133,-3.2136,-3.223,-3.2278,0,0,0,-3.1723,-3.1746,-3.176,-3.1767,-3.1794,-3.1839,-3.1842,-3.1872,-3.1876,-3.1913,-3.1918,-3.2132,-3.2136,-3.2224,-3.2269,-3.2344,0,0,0,-3.1734,-3.1847,-3.1762,-3.1886,-3.1794,-3.19,-3.1841,-3.1919,-3.1963,-3.1916,-3.2134,-3.2137,-3.2222,-3.2263,-3.2338,-3.2411,-3.2444,0,0,-3.1891,-3.1867,-3.1938,-3.1863,-3.1991,-3.1888,-3.203,-3.2047,-3.2028,-3.2103,-3.2108,-3.2232,-3.2268,-3.2342,-3.2621,-3.2648,0,0,0,-3.1996,-3.2047,-3.2075,-3.2118,-3.2134,-3.2151,-3.2143,-3.215,-3.2212,-3.2072,-3.2279,-3.23,-3.2342,-3.2376,-3.2398,-3.2433,-3.2154,-3.2154,-3.2153,-3.2252,-3.2222,-3.2336,-3.2314,-3.2356,-3.2348,-3.2379,-3.2386,-3.2343,-3.2393,-3.2414,-3.2587,-3.2627,-3.2644,-3.2681,-3.2451,-3.2451,-3.2452,-3.2452,-3.2478,-3.2545,-3.2485,-3.2575,-3.2542,-3.2617,-3.2613,-3.2581,-3.2645,-3.2568,-3.2604,-3.2522,-3.2674,-3.2704,-3.2459,-3.2458,-3.2457,-3.2456,-3.2456,-3.2642,-3.2668,-3.2674,-3.2733,-3.2782,-3.2755,-3.2821,-3.2789,-3.2759,-3.2795,-3.2814,-3.2812,-3.2805,-3.2806,-3.2807,-3.2808,-3.2808,-3.2808,-3.2809,-3.2809,-3.2812,-3.2871,-3.2897,-3.2921,-3.2947,-3.294,-3.2962,-3.2979,-3.295,-3.295,-3.2902,-3.2695,-3.2643,-3.2818,-3.2816,-3.2815,-3.2814,-3.2814,-3.3047,-3.2988,-3.3079,-3.3102,-3.313,-3.3181,-3.314,-3.3188,-3.3201,-3.3235,-3.3179,-3.3032,-3.3005,-3.2987,-3.2943,-3.3186,-3.3186,-3.3186,-3.3186,-3.3184,-3.3168,-3.3253,-3.3292,-3.3328,-3.33,-3.3403,-3.3399,-3.3385,-3.3392,-3.3353,-3.3293,-3.3276,-3.3259,-3.3235,-3.3194,-3.3495,-3.3495,-3.3495,-3.3328,-3.3314,-3.3408,-3.3394,-3.3413,-3.3431,-3.3527,-3.3575,-3.3548,-3.3507,-3.3396,-3.3383,-3.3286,-3.3256,-3.3212,-3.3176,-3.31,0,0]},{"header":{"parameterUnit":"m.s-1","parameterCategory":1,"la1":30.2992,"la2":30.254,"lo1":-89.0895,"lo2":-89.0443,"dy":0.0025,"dx":0.0025,"nx":19,"ny":19,"refTime":"2026-03-13T21:00:00:Z","depth":0,"parameterNumber":3,"parameterNumberName":"V-component_of_WINDS"},"data":[0,0,0,-0.599,-0.5988,-0.5881,-0.5881,-0.5745,-0.5744,0,0,0,0,0,0,0,0,0,0,0,-0.6026,-0.6025,-0.599,-0.5988,-0.5882,-0.5881,-0.5745,-0.5744,0,0,0,0,0,0,0,0,0,0,0,-0.6026,-0.6025,-0.6024,-0.5987,-0.5882,-0.5881,-0.5745,-0.5825,0,0,0,0,0,0,0,0,0,0,-0.5928,-0.5966,-0.6026,-0.6024,-0.5987,-0.5882,-0.5881,-0.5828,-0.582,-0.5794,0,-0.5777,0,-0.5758,-0.5735,-0.5735,0,0,0,-0.5983,-0.5974,-0.5941,-0.6024,-0.5986,-0.5882,-0.5928,-0.5824,-0.5814,-0.5783,-0.5775,-0.577,-0.5756,-0.5734,-0.5734,-0.5607,-0.5607,0,0,-0.5989,-0.6008,-0.5948,-0.5935,-0.5956,-0.5932,-0.5925,-0.5818,-0.5809,-0.5774,-0.5766,-0.5754,-0.5733,-0.5732,-0.5608,-0.5607,0,0,0,-0.6009,-0.6013,-0.5983,-0.5941,-0.5922,-0.5929,-0.5921,-0.5813,-0.5802,-0.5765,-0.5752,-0.5733,-0.5731,-0.5608,-0.5608,-0.5605,0,0,0,-0.6012,-0.6024,-0.5986,-0.5996,-0.5924,-0.5867,-0.5919,-0.581,-0.5797,-0.5753,-0.5733,-0.573,-0.5609,-0.5608,-0.5606,-0.56,0,0,0,-0.6031,-0.6026,-0.6013,-0.5997,-0.5953,-0.5869,-0.5851,-0.5807,-0.5789,-0.5735,-0.5729,-0.5609,-0.5608,-0.5607,-0.5602,-0.557,0,0,0,-0.6056,-0.6014,-0.6013,-0.596,-0.5954,-0.587,-0.5852,-0.5788,-0.5741,-0.5732,-0.5609,-0.5608,-0.5608,-0.5603,-0.5571,-0.5545,-0.5537,0,0,-0.6013,-0.6009,-0.5976,-0.5972,-0.5894,-0.5884,-0.5803,-0.5741,-0.5718,-0.5644,-0.5641,-0.5606,-0.5602,-0.557,-0.5489,-0.5483,0,0,0,-0.5968,-0.5945,-0.5919,-0.5877,-0.5829,-0.5786,-0.5735,-0.5711,-0.5647,-0.5686,-0.5587,-0.5584,-0.5564,-0.555,-0.5545,-0.5524,-0.5603,-0.5603,-0.5603,-0.5934,-0.5906,-0.5848,-0.5806,-0.5764,-0.571,-0.5671,-0.5629,-0.5614,-0.5591,-0.5568,-0.5523,-0.5508,-0.5504,-0.5483,-0.5555,-0.5555,-0.5555,-0.5555,-0.5865,-0.5825,-0.5804,-0.574,-0.5709,-0.5654,-0.5597,-0.5588,-0.5528,-0.5539,-0.552,-0.5532,-0.5498,-0.5478,-0.5554,-0.5554,-0.5554,-0.5554,-0.5554,-0.5837,-0.5813,-0.5785,-0.5717,-0.5666,-0.5624,-0.5567,-0.5541,-0.5516,-0.5498,-0.5468,-0.5468,-0.5461,-0.5486,-0.5486,-0.5486,-0.5486,-0.5485,-0.5485,-0.5818,-0.5787,-0.5744,-0.5688,-0.5654,-0.5606,-0.5548,-0.5512,-0.5465,-0.545,-0.545,-0.5433,-0.5502,-0.5517,-0.5483,-0.5483,-0.5483,-0.5484,-0.5484,-0.5755,-0.5764,-0.5698,-0.5664,-0.5592,-0.554,-0.5508,-0.5436,-0.5403,-0.5374,-0.5361,-0.5417,-0.541,-0.5414,-0.5427,-0.5371,-0.5371,-0.5371,-0.5371,-0.5729,-0.5724,-0.5647,-0.5594,-0.5538,-0.55,-0.5419,-0.5371,-0.5323,-0.5298,-0.5303,-0.5318,-0.5324,-0.5313,-0.532,-0.533,-0.5251,-0.5251,-0.5251,-0.5687,-0.5674,-0.5613,-0.5568,-0.5508,-0.5455,-0.5377,-0.5311,-0.5258,-0.5246,-0.5278,-0.5283,-0.5307,-0.5317,-0.5305,-0.5315,-0.5335,0,0]}]]